Location: Caltech
(34.1382°N, 118.1253°W)
Time: 15:37:08
(UTC-07:00)

ARGOS - Visible Passes

Search period start: 01 July 2016 00:00
Search period end: 11 July 2016 00:00
Orbit: 820 x 835 km, 98.7° (Epoch: 30 June)

Date Brightness Start Highest point End Pass type
(mag) Time Alt. Az. Time Alt. Az. Time Alt. Az.
01 Jul 4.3 21:26:16 18° ESE 21:28:56 27° ENE 21:33:22 10° NNE visible
01 Jul 4.3 23:07:47 30° WSW 23:08:59 33° W 23:13:48 10° NW visible
02 Jul 4.8 21:07:30 12° ESE 21:10:35 18° ENE 21:14:08 10° NNE visible
02 Jul 3.7 22:49:01 40° SW 22:50:23 50° W 22:55:37 10° NNW visible
03 Jul 5.2 20:50:22 10° E 20:52:18 12° ENE 20:54:14 10° NE visible
03 Jul 3.2 22:30:17 48° S 22:31:49 77° WSW 22:37:13 10° NNW visible
04 Jul 3.1 22:11:31 42° SE 22:13:19 72° ENE 22:18:40 10° N visible
04 Jul 5.6 23:53:02 11° WSW 23:53:58 11° W 23:55:36 10° WNW visible
05 Jul 3.6 21:52:46 31° SE 21:54:51 47° ENE 21:59:59 10° N visible
05 Jul 5.1 23:34:17 17° WSW 23:35:16 18° W 23:38:52 10° NW visible
06 Jul 4.1 21:34:01 22° ESE 21:36:26 31° ENE 21:41:07 10° N visible
06 Jul 4.6 23:15:32 26° WSW 23:16:36 27° W 23:21:08 10° NW visible
07 Jul 4.6 21:15:16 14° ESE 21:18:04 21° ENE 21:22:01 10° NNE visible
07 Jul 4.0 22:56:47 37° SW 22:57:58 42° W 23:03:03 10° NNW visible
08 Jul 5.0 20:57:00 10° E 20:59:45 14° ENE 21:02:30 10° NNE visible
08 Jul 3.4 22:38:02 47° SSW 22:39:23 64° WSW 22:44:44 10° NNW visible
09 Jul 3.0 22:19:17 48° SSE 22:20:51 85° ENE 22:26:16 10° NNW visible
10 Jul 3.3 22:00:33 38° SE 22:02:23 56° ENE 22:07:38 10° N visible
10 Jul 5.3 23:42:04 15° WSW 23:42:53 15° W 23:45:52 10° WNW visible
